Location: East Guldeford
(50.9500°N, 0.7500°E)
Time: 18:04:58
(UTC+00:00)

NOSS 3-4 (A) - Pass Details

Date: 12 May 2021
Orbit: 872 x 1340 km, 63.4° (Epoch: 06 May)

Event Time Altitude Azimuth Distance (km) Brightness Sun altitude
Rises 20:23:52 0° 314° (NW) 3,735 9.2 -6.9°
Reaches altitude 10° 20:26:22 10° 317° (NW) 2,843 7.7 -7.2°
Maximum altitude 20:33:07 68° 40° (NE) 1,209 4.0 -8.0°
Drops below altitude 10° 20:40:42 10° 124° (ESE) 3,174 5.5 -8.9°
Enters shadow 20:40:44 10° 124° (ESE) 3,185 5.5 -8.9°
